Regional Weather Roundup
Issued by NWS

Home | Current Version | Previous Version | Text Only | Print | Product List | Glossary Off
Versions: 1 2 3 4 5 6 7 8 9 10 11 12 13 14 15 16 17 18 19 20 21 22 23 24 25 26 27 28 29 30 31 32 33 34 35 36 37 38 39 40 41 42 43 44 45 46 47 48 49 50

000
ASUS43 KDMX 222006
RWRIA

WEATHER ROUNDUP FOR IOWA
NATIONAL WEATHER SERVICE DES MOINES IA
300 PM CDT SUN OCT 22 2017

NOTE: "FAIR" INDICATES FEW OR NO CLOUDS BELOW 12,000 FEET WITH NO
SIGNIFICANT WEATHER AND/OR OBSTRUCTIONS TO VISIBILITY.

* - THESE STATIONS ARE NOT NWS STATIONS...THUS NOT UNDER NWS
QUALITY CONTROL.  THEY ALSO DO NOT REPORT WEATHER SUCH
AS PRECIPITATION OR FOG.

IAZ001>003-012>014-020>022-031>034-043>046-222100-
   NORTHWEST IOWA

CITY           SKY/WX    TMP DP  RH WIND       PRES   REMARKS
CHEROKEE *     SUNNY     65  33  30 SW10G16   30.01F
DENISON *      SUNNY     66  30  26 SW12      30.05F
LE MARS *      SUNNY     68  27  21 SW9G16    29.99F
ORANGE CITY *  SUNNY     66  34  30 SW13      29.99F
SHELDON *      SUNNY     66  27  22 W8G18     29.97F
SIOUX CITY     SUNNY     69  29  22 SW13      30.00F
SPENCER        SUNNY     65  26  23 W14G20    30.00F
STORM LAKE *   SUNNY     64  25  22 SW16      30.02F
$$

IAZ055>058-069>071-079>083-090>094-222100-
   SOUTHWEST IOWA

CITY           SKY/WX    TMP DP  RH WIND       PRES   REMARKS
ATLANTIC *     SUNNY     66  32  28 VRB6      30.05F
AUDUBON *      SUNNY     66  28  24 W5        30.06S
CLARINDA *     SUNNY     68  32  26 CALM      30.08F
COUNCIL BLFS * SUNNY     66  34  30 VRB6G16   30.05F
CRESTON *      SUNNY     64  34  32 N8G16     30.07F
HARLAN  *      SUNNY     66  28  24 W8        30.08F
LAMONI         CLOUDY    63  40  42 N7        30.07F
RED OAK *      SUNNY     66  28  24 NW7       30.06F
SHENANDOAH *   SUNNY     68  30  24 W5G13     30.07F
$$

IAZ047>049-059>061-072>074-084-222100-
   CENTRAL IOWA

CITY           SKY/WX    TMP DP  RH WIND       PRES   REMARKS
AMES           CLOUDY    66  37  34 NW10      30.04F
ANKENY *       MOSUNNY   63  36  36 NW10      30.05F
BOONE *        SUNNY     64  32  29 NW12G17   30.03F
CHARITON *     CLOUDY    59  41  51 NW5       30.06F
DES MOINES     PTSUNNY   64  36  35 NW6       30.04F
GRINNELL*      CLOUDY    58  43  57 NW5       30.07F
KNOXVILLE *    CLOUDY    59  41  51 NW6       30.05F
MARSHALLTOWN   CLOUDY    61  40  45 NW10      30.04F
NEWTON *       CLOUDY    61  39  44 NW7       30.05F
PELLA *        CLOUDY    60  42  52 W3        30.07F
PERRY *          N/A     67  26  20 NW7       30.04F
$$

IAZ004>006-015-016-023>025-035-036-222100-
   NORTH CENTRAL IOWA

CITY           SKY/WX    TMP DP  RH WIND       PRES   REMARKS
ALGONA *       SUNNY     64  30  27 W13G28    30.02S
CLARION *      SUNNY     64  32  29 NW12G17   30.03S
ESTHERVILLE    SUNNY     63  29  27 SW9G21    30.00F
FORT DODGE *   SUNNY     65  32  29 W7        30.03F
MASON CITY     SUNNY     63  33  32 W8        30.03S
FOREST CITY *    N/A     63  32  31 W10G20    30.01F
WEBSTER CITY * SUNNY     66  28  24 W8G15     30.01F
IOWA FALLS *     N/A     64  33  31 W12G17    30.05S
$$

IAZ007>011-017>019-026>030-037>042-050>054-066-222100-
   NORTHEAST IOWA

CITY           SKY/WX    TMP DP  RH WIND       PRES   REMARKS
CEDAR RAPIDS   CLOUDY    55  46  71 NW9       30.04F
CHARLES CITY * CLOUDY    61  32  33 W6G14     30.03S
CLINTON *      LGT RAIN  52  49  89 NW7       30.05R
DECORAH *      CLOUDY    54  45  71 CALM      30.02S
DUBUQUE        CLOUDY    52  46  80 NW8       30.04R
MONTICELLO *   CLOUDY    55  46  71 NW6       30.04S
OELWEIN *      CLOUDY    55  46  71 NW8       30.05S
WATERLOO       CLOUDY    57  43  59 CALM      30.03F
$$

IAZ064-065-067-068-078-222100-
   EAST CENTRAL IOWA

CITY           SKY/WX    TMP DP  RH WIND       PRES   REMARKS
DAVENPORT      CLOUDY    53  49  86 NW7       30.06R
IOWA CITY      CLOUDY    57  46  66 NW8       30.07R
MUSCATINE *    CLOUDY    55  48  76 NW5       30.06S
QUAD CITIES    LGT RAIN  54  47  77 NW5       30.05R
$$

IAZ062-063-075>077-085>089-095>099-222100-
   SOUTHEAST IOWA

CITY           SKY/WX    TMP DP  RH WIND       PRES   REMARKS
BURLINGTON     CLOUDY    54  48  80 NW7       30.06R
FAIRFIELD *    PTSUNNY   55  46  71 NW8       30.06F
FORT MADISON * CLOUDY    54  50  87 NW8       30.07F
KEOKUK *       CLOUDY    54  50  87 NW7       30.06S
OSKALOOSA *      N/A     57  47  70 N5        30.07F
OTTUMWA        PTSUNNY   57  47  69 NW5       30.06F
WASHINGTON *   CLOUDY    55  50  82 NW10      30.07F
$$

ABBREVIATIONS USED IN REMARKS
   TC - TEMPERATURES IN CELSIUS
  WCI - WIND CHILL INDEX
   HX - HEAT INDEX
  VSB - VISIBILITY
$$





USA.gov is the U.S. government's official web portal to all federal, state and local government web resources and services.